Regional Weather Roundup
Issued by NWS

Home | Current Version | Previous Version | Graphics & Text | Print | Product List | Glossary On
Versions: 1 2 3 4 5 6 7 8 9 10 11 12 13 14 15 16 17 18 19 20 21 22 23 24 25 26 27 28 29 30 31 32 33 34 35 36 37 38 39 40 41 42 43 44 45 46 47 48 49 50
000
ASUS45 KCYS 050810
RWRWY

WYOMING REGIONAL WEATHER ROUNDUP
NATIONAL WEATHER SERVICE CHEYENNE WY
200 AM MDT WED AUG 05 2015

NOTE:  "FAIR" INDICATES FEW OR NO CLOUDS BELOW 12,000 FEET
WITH NO SIGNIFICANT WEATHER AND/OR OBSTRUCTIONS TO VISIBILITY.

WYZ001-050900-
YELLOWSTONE NATIONAL PARK

CITY           SKY/WX    TMP DP  RH WIND       PRES   REMARKS
LK YELLOWSTONE   N/A     42  41  96 CALM      30.30F
W YELLOWSTONE  NOT AVBL

$$
WYZ002>013-054>058-071-098>099-050900-
NORTHERN WYOMING

CITY           SKY/WX    TMP DP  RH WIND       PRES   REMARKS
JACKSON        NOT AVBL
CODY           FAIR      57  46  67 CALM      30.10F
GREYBULL       FAIR      59  53  80 S5        30.04S
WORLAND        FAIR      58  54  86 S6        30.06S
SHERIDAN       FAIR      57  53  86 NW7       30.02S
BUFFALO        FAIR      58  50  75 N7        30.08F
GILLETTE       FAIR      62  56  80 SW7       30.04F
HULETT         FAIR      59  52  77 CALM      30.07F
NEWCASTLE      FAIR      57  55  94 MISG      30.08F

$$
WYZ014>020-022>026-101>103-050900-
CENTRAL WYOMING

CITY           SKY/WX    TMP DP  RH WIND       PRES   REMARKS
BIG PINEY      FAIR      51  45  79 N8        30.24F
PINEDALE       FAIR      46  45  93 W5        30.25S
DUBOIS         FAIR      50  39  66 NW12      30.24F
LANDER         FAIR      62  47  57 CALM      30.12F
RIVERTON       FAIR      63  46  54 CALM      30.14S
CASPER         FAIR      56  53  90 SW6       30.13S
DOUGLAS        FAIR      55  52  89 CALM      30.11S

$$
WYZ021-027>030-104>119-050900-
SOUTHERN WYOMING

CITY           SKY/WX    TMP DP  RH WIND       PRES   REMARKS
EVANSTON       FAIR      62  38  40 CALM      30.22F
KEMMERER       FAIR      55  34  44 NE3       30.25F
FORT BRIDGER   SUNNY     57  41  54 S10       30.25F
ROCK SPRINGS   FAIR      59  42  53 S6        30.22F
DIXON          FAIR      55  38  51 NE3       30.25F
RAWLINS        FAIR      60  34  37 CALM      30.22F
SARATOGA       FAIR      50  34  53 SE7       30.26F
LARAMIE        FAIR      48  39  71 S5        30.27S
CHEYENNE       FAIR      57  52  83 W3        30.20F
TORRINGTON     FOG       57  57 100 SE6       30.06F VSB 3/4
PINE BLUFFS    FAIR      52  50  93 SW3       30.15F

$$



USA.gov is the U.S. government's official web portal to all federal, state and local government web resources and services.